When you browse on this site, cookies collect data to enhance your experience and personalize the content and advertising you see.
Visit our Privacy Policy to learn more. By continuing to use the site, you agree to this use of cookies and data.
  • In Latvia
  • List of Countries
  • For 7 days
  • Water Temperature
  • Weather Map
  • Weather Widgets
  • user-avatar
    Login

    Hourly Weather Salawaj

    Today, 18 September, Wednesday

    Time Temperature Precipitation Wind Pressure Humidity
    00:00 +25°C° 0 mm 1 mps 740 mmHg 91%
    01:00 +25°C° 0 mm 1 mps 740 mmHg 93%
    02:00 +24°C° 0 mm 1 mps 740 mmHg 93%
    03:00 +22°C° 0 mm 0 mps 740 mmHg 93%
    04:00 +22°C° 0 mm 0 mps 740 mmHg 93%
    05:00 +22°C° 0 mm 0 mps 740 mmHg 91%
    06:00 +23°C° 0 mm 0 mps 741 mmHg 89%
    07:00 +26°C° 0 mm 1 mps 741 mmHg 85%
    08:00 +28°C° 0 mm 1 mps 741 mmHg 77%
    09:00 +29°C° 0 mm 0 mps 741 mmHg 68%
    10:00 +31°C° 0 mm 0 mps 741 mmHg 59%
    11:00 +33°C° 0.1 mm 1 mps 741 mmHg 59%
    12:00 +34°C° 0.1 mm 1 mps 740 mmHg 59%
    13:00 +34°C° 0.1 mm 1 mps 739 mmHg 60%
    14:00 +33°C° 1 mm 1 mps 739 mmHg 69%
    15:00 +32°C° 1 mm 1 mps 739 mmHg 78%
    16:00 +31°C° 1 mm 1 mps 739 mmHg 87%
    17:00 +30°C° 0.3 mm 1 mps 739 mmHg 89%
    18:00 +28°C° 0.3 mm 1 mps 740 mmHg 92%
    19:00 +27°C° 0.3 mm 1 mps 740 mmHg 94%
    20:00 +27°C° 0 mm 1 mps 740 mmHg 95%
    21:00 +26°C° 0 mm 1 mps 741 mmHg 95%
    22:00 +26°C° 0 mm 1 mps 741 mmHg 96%
    23:00 +26°C° 0 mm 1 mps 741 mmHg 95%

    Tomorrow, 19 September, Thursday

    Time Temperature Precipitation Wind Pressure Humidity
    00:00 +26°C° 0 mm 1 mps 741 mmHg 95%
    01:00 +25°C° 0 mm 1 mps 741 mmHg 95%
    02:00 +25°C° 0 mm 1 mps 741 mmHg 95%
    03:00 +25°C° 0 mm 1 mps 741 mmHg 96%
    04:00 +24°C° 0 mm 1 mps 741 mmHg 96%
    05:00 +25°C° 0 mm 1 mps 741 mmHg 95%
    06:00 +23°C° 0 mm 0 mps 741 mmHg 93%
    07:00 +24°C° 0 mm 0 mps 742 mmHg 92%
    08:00 +26°C° 0 mm 0 mps 742 mmHg 82%
    09:00 +28°C° 0 mm 0 mps 742 mmHg 73%
    10:00 +31°C° 0 mm 0 mps 742 mmHg 63%
    11:00 +33°C° 0.5 mm 1 mps 741 mmHg 63%
    12:00 +34°C° 0.5 mm 1 mps 741 mmHg 64%
    13:00 +34°C° 0.5 mm 1 mps 740 mmHg 64%
    14:00 +33°C° 2.3 mm 1 mps 740 mmHg 73%
    15:00 +29°C° 2.3 mm 0 mps 739 mmHg 83%
    16:00 +28°C° 2.3 mm 0 mps 739 mmHg 92%
    17:00 +27°C° 1.6 mm 0 mps 739 mmHg 93%
    18:00 +26°C° 1.6 mm 0 mps 740 mmHg 94%
    19:00 +25°C° 1.6 mm 0 mps 740 mmHg 94%
    20:00 +24°C° 0.8 mm 0 mps 741 mmHg 95%
    21:00 +26°C° 0.8 mm 1 mps 741 mmHg 96%
    22:00 +26°C° 0.8 mm 1 mps 742 mmHg 97%
    23:00 +23°C° 0.4 mm 0 mps 742 mmHg 97%

    Day after tomorrow, 20 September, Friday

    Time Temperature Precipitation Wind Pressure Humidity
    00:00 +23°C° 0.4 mm 0 mps 741 mmHg 97%
    01:00 +23°C° 0.4 mm 0 mps 741 mmHg 97%
    02:00 +23°C° 0.3 mm 0 mps 741 mmHg 98%
    03:00 +23°C° 0.3 mm 0 mps 741 mmHg 98%
    04:00 +22°C° 0.3 mm 0 mps 740 mmHg 98%
    05:00 +23°C° 0.1 mm 0 mps 741 mmHg 98%
    06:00 +23°C° 0.1 mm 0 mps 741 mmHg 97%
    07:00 +24°C° 0.1 mm 0 mps 742 mmHg 97%
    08:00 +26°C° 0.2 mm 0 mps 742 mmHg 89%
    09:00 +28°C° 0.2 mm 0 mps 742 mmHg 81%
    10:00 +30°C° 0.2 mm 0 mps 742 mmHg 73%
    11:00 +30°C° 0.6 mm 0 mps 741 mmHg 71%
    12:00 +33°C° 0.6 mm 1 mps 740 mmHg 69%
    13:00 +34°C° 0.6 mm 1 mps 739 mmHg 67%
    14:00 +33°C° 1.4 mm 1 mps 739 mmHg 73%
    15:00 +30°C° 1.4 mm 0 mps 738 mmHg 78%
    16:00 +30°C° 1.4 mm 0 mps 738 mmHg 84%
    17:00 +28°C° 0.8 mm 0 mps 738 mmHg 87%
    18:00 +26°C° 0.8 mm 0 mps 739 mmHg 90%
    19:00 +25°C° 0.8 mm 0 mps 739 mmHg 93%
    20:00 +26°C° 0.2 mm 1 mps 740 mmHg 94%
    21:00 +26°C° 0.2 mm 1 mps 741 mmHg 95%
    22:00 +26°C° 0.2 mm 1 mps 741 mmHg 96%
    23:00 +25°C° 0.4 mm 1 mps 741 mmHg 96%

    21 September, Saturday

    Time Temperature Precipitation Wind Pressure Humidity
    00:00 +23°C° 0.4 mm 0 mps 741 mmHg 97%
    01:00 +23°C° 0.4 mm 0 mps 740 mmHg 97%
    02:00 +22°C° 0.1 mm 0 mps 740 mmHg 97%
    03:00 +22°C° 0.1 mm 0 mps 740 mmHg 98%
    04:00 +24°C° 0.1 mm 1 mps 740 mmHg 98%
    05:00 +24°C° 0 mm 1 mps 740 mmHg 97%
    06:00 +24°C° 0 mm 1 mps 741 mmHg 96%
    07:00 +23°C° 0 mm 0 mps 741 mmHg 95%
    08:00 +25°C° 0.2 mm 0 mps 741 mmHg 85%
    09:00 +28°C° 0.2 mm 0 mps 741 mmHg 75%
    10:00 +30°C° 0.2 mm 0 mps 741 mmHg 65%
    11:00 +33°C° 0.3 mm 1 mps 741 mmHg 63%
    12:00 +34°C° 0.3 mm 1 mps 740 mmHg 60%
    13:00 +34°C° 0.3 mm 1 mps 740 mmHg 57%
    14:00 +33°C° 1 mm 1 mps 740 mmHg 69%
    15:00 +31°C° 1 mm 1 mps 739 mmHg 80%
    16:00 +29°C° 1 mm 1 mps 739 mmHg 91%
    17:00 +28°C° 1.6 mm 1 mps 740 mmHg 93%
    18:00 +27°C° 1.6 mm 1 mps 740 mmHg 95%
    19:00 +26°C° 1.6 mm 1 mps 741 mmHg 96%
    20:00 +24°C° 2.3 mm 0 mps 741 mmHg 97%
    21:00 +23°C° 2.3 mm 0 mps 742 mmHg 97%
    22:00 +23°C° 2.3 mm 0 mps 743 mmHg 98%
    23:00 +23°C° 0.8 mm 0 mps 742 mmHg 98%

    22 September, Sunday

    Time Temperature Precipitation Wind Pressure Humidity
    00:00 +23°C° 0.8 mm 0 mps 742 mmHg 97%
    01:00 +23°C° 0.8 mm 0 mps 742 mmHg 97%
    02:00 +23°C° 0.1 mm 0 mps 742 mmHg 97%
    03:00 +22°C° 0.1 mm 0 mps 742 mmHg 97%
    04:00 +22°C° 0.1 mm 0 mps 742 mmHg 98%
    05:00 +22°C° 0 mm 0 mps 742 mmHg 97%
    06:00 +23°C° 0 mm 0 mps 743 mmHg 97%
    07:00 +23°C° 0 mm 0 mps 743 mmHg 96%
    08:00 +25°C° 0 mm 0 mps 743 mmHg 85%
    09:00 +28°C° 0 mm 0 mps 743 mmHg 73%
    10:00 +32°C° 0 mm 1 mps 743 mmHg 62%
    11:00 +32°C° 0.4 mm 1 mps 743 mmHg 63%
    12:00 +32°C° 0.4 mm 1 mps 742 mmHg 64%
    13:00 +33°C° 0.4 mm 1 mps 742 mmHg 65%
    14:00 +32°C° 0.7 mm 1 mps 741 mmHg 69%
    15:00 +32°C° 0.7 mm 1 mps 741 mmHg 72%
    16:00 +31°C° 0.7 mm 1 mps 741 mmHg 75%
    17:00 +29°C° 0.3 mm 1 mps 741 mmHg 80%
    18:00 +27°C° 0.3 mm 1 mps 742 mmHg 85%
    19:00 +25°C° 0.3 mm 1 mps 743 mmHg 89%
    20:00 +25°C° 0 mm 1 mps 743 mmHg 91%
    21:00 +24°C° 0 mm 1 mps 744 mmHg 92%
    22:00 +24°C° 0 mm 1 mps 744 mmHg 94%
    23:00 +23°C° 0 mm 1 mps 744 mmHg 94%

    23 September, Monday

    Time Temperature Precipitation Wind Pressure Humidity
    00:00 +23°C° 0 mm 1 mps 744 mmHg 95%
    01:00 +23°C° 0 mm 1 mps 743 mmHg 96%
    02:00 +23°C° 0 mm 1 mps 743 mmHg 96%
    03:00 +21°C° 0 mm 0 mps 743 mmHg 96%
    04:00 +21°C° 0 mm 0 mps 743 mmHg 96%
    05:00 +21°C° 0 mm 0 mps 744 mmHg 95%
    06:00 +22°C° 0 mm 0 mps 744 mmHg 93%
    07:00 +23°C° 0 mm 0 mps 745 mmHg 91%
    08:00 +27°C° 0 mm 1 mps 745 mmHg 81%
    09:00 +29°C° 0 mm 1 mps 745 mmHg 70%
    10:00 +32°C° 0 mm 1 mps 745 mmHg 60%
    11:00 +32°C° 0.4 mm 1 mps 744 mmHg 64%
    12:00 +32°C° 0.4 mm 1 mps 743 mmHg 68%
    13:00 +32°C° 0.4 mm 2 mps 743 mmHg 72%
    14:00 +31°C° 0.7 mm 2 mps 742 mmHg 73%
    15:00 +31°C° 0.7 mm 2 mps 742 mmHg 74%
    16:00 +31°C° 0.7 mm 1 mps 741 mmHg 75%
    17:00 +29°C° 0.2 mm 1 mps 742 mmHg 79%
    18:00 +27°C° 0.2 mm 1 mps 742 mmHg 84%
    19:00 +25°C° 0.2 mm 1 mps 743 mmHg 89%
    20:00 +25°C° 0 mm 1 mps 743 mmHg 90%
    21:00 +24°C° 0 mm 1 mps 744 mmHg 91%
    22:00 +24°C° 0 mm 1 mps 744 mmHg 93%
    23:00 +23°C° 0 mm 1 mps 744 mmHg 94%
    Show more